QPF
0.00 0.00 0.00 0.00 0.00 0.00 0.00 0.00 0.00 0.00 0.00 0.00 0.00 0.00 0.00 0.00 0.00 0.00 0.00 0.00 0.00 0.00 0.00 0.00 0.00 0.00 0.00 0.00 0.00 0.01 0.00 0.00 0.00 0.00 0.00 0.00 0.00 0.00 0.00 0.00 0.00 0.01 0.01 0.00 0.00 0.00 0.00 0.00 0.00
0.00 0.00 0.00 0.00 0.00 0.00 0.00 0.00 0.00 0.00 0.00 0.00 0.00 0.00 0.00 0.00 0.00 0.00 0.00 0.00 0.00 0.00 0.00 0.00 0.00 0.01 0.01 0.01 0.00 0.00 0.00 0.00 0.00 0.00 0.00 0.00 0.00 0.00 0.00 0.00 0.00 0.00 0.00 0.00 0.00 0.00 0.00 0.00 0.00
0.00 0.00 0.00 0.00 0.00 0.00 0.00 0.00 0.00 0.00 0.00 0.00 0.00 0.00 0.00 0.00 0.00 0.00 0.00 0.00 0.00 0.00 0.00 0.00 0.00 0.01 0.01 0.00 0.00 0.00 0.00 0.00 0.00 0.00 0.00 0.00 0.00 0.00 0.00 0.00 0.00 0.00 0.00 0.00 0.00 0.00 0.00 0.00 0.00
0.00 0.00 0.00 0.00 0.00 0.00 0.00 0.00 0.00 0.00 0.00 0.00 0.00 0.00 0.00 0.00 0.00 0.00 0.00 0.00 0.00 0.00 0.00 0.00 0.00 0.01 0.00 0.00 0.00 0.00 0.00 0.00 0.00 0.00 0.00 0.00 0.00 0.00 0.00 0.00 0.00 0.00 0.00 0.00 0.00 0.00 0.00 0.00 0.00
0.00 0.00 0.00 0.00 0.00 0.00 0.00 0.00 0.00 0.00 0.00 0.00 0.00 0.00 0.00 0.00 0.00 0.00 0.00 0.00 0.00 0.00 0.00 0.00 0.00 0.00 0.00 0.00 0.00 0.00 0.00 0.00 0.00 0.00 0.00 0.00 0.00 0.00 0.00 0.00 0.00 0.00 0.00 0.00 0.00 0.00 0.00 0.00 0.00
0.00 0.00 0.00 0.00 0.00 0.00 0.00 0.00 0.00 0.00 0.00 0.00 0.00 0.00 0.00 0.00 0.00 0.00 0.00 0.00 0.00 0.00 0.00 0.00 0.00 0.00 0.00 0.00 0.00 0.00 0.00 0.00 0.00 0.00 0.00 0.00 0.00 0.00 0.00 0.00 0.00 0.00 0.00 0.00 0.00 0.00 0.00 0.00 0.00
0.00 0.00 0.00 0.00 0.00 0.00 0.00 0.00 0.00 0.00 0.00 0.00 0.00 0.00 0.00 0.00 0.00 0.00 0.00 0.00 0.00 0.00 0.00 0.00 0.00 0.00 0.00 0.00 0.00 0.00 0.00 0.00 0.00 0.00 0.00 0.00 0.00 0.00 0.00 0.00 0.00 0.00 0.00 0.00 0.00 0.00 0.00 0.00 0.00
0.00 0.00 0.00 0.00 0.00 0.00 0.00 0.00 0.00 0.00 0.00 0.00 0.00 0.00 0.00 0.00 0.00 0.00 0.00 0.00 0.00 0.00 0.00 0.00 0.00 0.00 0.00 0.00 0.00 0.00 0.00 0.00 0.00 0.00 0.00 0.00 0.00 0.00 0.00 0.00 0.00 0.00 0.00 0.00 0.00 0.00 0.00 0.00 0.00
0.00 0.00 0.00 0.00 0.00 0.00 0.00 0.00 0.00 0.00 0.00 0.00 0.00 0.00 0.00 0.00 0.00 0.00 0.00 0.00 0.00 0.00 0.00 0.00 0.00 0.00 0.00 0.00 0.00 0.00 0.00 0.00 0.00 0.00 0.00 0.00 0.00 0.00 0.00 0.00 0.00 0.00 0.00 0.00 0.00 0.00 0.00 0.00 0.00
0.00 0.00 0.00 0.00 0.00 0.00 0.00 0.00 0.00 0.00 0.00 0.00 0.00 0.00 0.00 0.00 0.00 0.00 0.00 0.00 0.00 0.00 0.00 0.00 0.00 0.00 0.00 0.00 0.00 0.00 0.00 0.00 0.00 0.00 0.00 0.00 0.00 0.00 0.00 0.00 0.00 0.00 0.00 0.00 0.00 0.00 0.00 0.00 0.00
0.00 0.00 0.00 0.00 0.00 0.00 0.00 0.00 0.00 0.00 0.00 0.00 0.00 0.00 0.00 0.00 0.00 0.00 0.00 0.00 0.00 0.00 0.00 0.00 0.00 0.00 0.00 0.00 0.00 0.00 0.00 0.00 0.00 0.00 0.00 0.00 0.00 0.00 0.00 0.00 0.00 0.00 0.00 0.00 0.00 0.00 0.00 0.00 0.00
0.00 0.00 0.00 0.00 0.00 0.00 0.00 0.00 0.00 0.00 0.00 0.00 0.00 0.00 0.00 0.00 0.00 0.00 0.00 0.00 0.00 0.00 0.00 0.00 0.00 0.00 0.00 0.00 0.00 0.00 0.00 0.00 0.00 0.00 0.00 0.00 0.00 0.00 0.00 0.00 0.00 0.00 0.00 0.00 0.00 0.00 0.00 0.00 0.00
0.00 0.00 0.00 0.00 0.00 0.00 0.00 0.00 0.00 0.00 0.00 0.00 0.00 0.00 0.00 0.00 0.00 0.00 0.00 0.00 0.00 0.00 0.00 0.00 0.00 0.00 0.00 0.00 0.00 0.00 0.00 0.00 0.00 0.00 0.00 0.00 0.00 0.00 0.00 0.00 0.00 0.00 0.00 0.00 0.00 0.00 0.00 0.00 0.00
0.00 0.00 0.00 0.00 0.00 0.00 0.00 0.00 0.00 0.00 0.00 0.00 0.00 0.00 0.00 0.00 0.00 0.00 0.00 0.00 0.00 0.00 0.00 0.00 0.00 0.00 0.00 0.00 0.00 0.00 0.00 0.00 0.00 0.00 0.00 0.00 0.00 0.00 0.00 0.00 0.00 0.00 0.00 0.00 0.00 0.00 0.00 0.00 0.00
0.00 0.00 0.00 0.00 0.00 0.00 0.00 0.00 0.00 0.00 0.00 0.00 0.00 0.00 0.00 0.00 0.00 0.00 0.00 0.00 0.00 0.00 0.00 0.00 0.00 0.00 0.00 0.00 0.00 0.00 0.00 0.00 0.00 0.00 0.00 0.00 0.00 0.00 0.00 0.00 0.00 0.00 0.00 0.00 0.00 0.00 0.00 0.00 0.00
0.00 0.00 0.00 0.00 0.00 0.00 0.00 0.00 0.00 0.00 0.00 0.00 0.00 0.00 0.00 0.00 0.00 0.00 0.00 0.00 0.00 0.00 0.00 0.00 0.00 0.00 0.00 0.00 0.00 0.00 0.00 0.00 0.00 0.00 0.00 0.00 0.00 0.00 0.00 0.00 0.00 0.00 0.00 0.00 0.00 0.00 0.00 0.00 0.00
0.00 0.00 0.00 0.00 0.00 0.00 0.00 0.00 0.00 0.00 0.00 0.00 0.00 0.00 0.00 0.00 0.00 0.00 0.00 0.00 0.00 0.00 0.00 0.00 0.00 0.00 0.00 0.00 0.00 0.00 0.00 0.00 0.00 0.00 0.00 0.00 0.00 0.00 0.00 0.00 0.00 0.00 0.00 0.00 0.00 0.00 0.00 0.00 0.00
0.00 0.00 0.00 0.00 0.00 0.00 0.00 0.00 0.00 0.00 0.00 0.00 0.00 0.00 0.00 0.00 0.00 0.00 0.00 0.00 0.00 0.00 0.00 0.00 0.00 0.00 0.00 0.00 0.00 0.00 0.00 0.00 0.00 0.00 0.00 0.00 0.00 0.00 0.00 0.00 0.00 0.00 0.00 0.00 0.00 0.00 0.00 0.00 0.00
0.00 0.00 0.00 0.00 0.00 0.00 0.00 0.00 0.00 0.00 0.00 0.00 0.00 0.00 0.00 0.00 0.00 0.00 0.00 0.00 0.00 0.00 0.00 0.00 0.00 0.00 0.00 0.00 0.00 0.00 0.00 0.00 0.00 0.00 0.00 0.00 0.00 0.00 0.00 0.00 0.00 0.00 0.00 0.00 0.00 0.00 0.00 0.00 0.00
0.00 0.00 0.00 0.00 0.00 0.00 0.00 0.00 0.00 0.00 0.00 0.00 0.00 0.00 0.00 0.00 0.00 0.00 0.00 0.00 0.00 0.00 0.00 0.00 0.00 0.00 0.00 0.00 0.00 0.00 0.00 0.00 0.00 0.00 0.00 0.00 0.00 0.00 0.00 0.00 0.00 0.00 0.00 0.00 0.00 0.00 0.00 0.00 0.00
0.00 0.00 0.00 0.00 0.00 0.00 0.00 0.00 0.00 0.00 0.00 0.00 0.00 0.00 0.00 0.00 0.00 0.00 0.00 0.00 0.00 0.00 0.00 0.00 0.00 0.00 0.00 0.00 0.00 0.00 0.00 0.00 0.00 0.00 0.00 0.00 0.00 0.00 0.00 0.00 0.00 0.00 0.00 0.00 0.00 0.00 0.00 0.00 0.00
0.00 0.00 0.00 0.00 0.00 0.00 0.00 0.00 0.00 0.00 0.00 0.00 0.00 0.00 0.00 0.00 0.00 0.00 0.00 0.00 0.00 0.00 0.00 0.00 0.00 0.00 0.00 0.00 0.00 0.00 0.00 0.00 0.00 0.00 0.00 0.00 0.00 0.00 0.00 0.00 0.00 0.00 0.00 0.00 0.00 0.00 0.00 0.00 0.00
0.00 0.00 0.00 0.00 0.00 0.00 0.00 0.00 0.00 0.00 0.00 0.00 0.00 0.00 0.00 0.00 0.00 0.00 0.00 0.00 0.00 0.00 0.00 0.00 0.00 0.00 0.00 0.00 0.00 0.00 0.00 0.00 0.00 0.00 0.00 0.00 0.00 0.00 0.00 0.00 0.00 0.00 0.00 0.00 0.00 0.00 0.00 0.00 0.00
0.00 0.00 0.00 0.00 0.00 0.00 0.00 0.00 0.00 0.00 0.00 0.00 0.00 0.00 0.00 0.00 0.00 0.00 0.00 0.00 0.00 0.00 0.00 0.00 0.00 0.00 0.00 0.00 0.00 0.00 0.00 0.00 0.00 0.00 0.00 0.00 0.00 0.00 0.00 0.00 0.00 0.00 0.00 0.00 0.00 0.00 0.00 0.00 0.00
0.00 0.00 0.00 0.00 0.00 0.00 0.00 0.00 0.00 0.00 0.00 0.00 0.00 0.00 0.00 0.00 0.00 0.00 0.00 0.00 0.00 0.00 0.00 0.00 0.00 0.00 0.00 0.00 0.00 0.00 0.00 0.00 0.00 0.00 0.00 0.00 0.00 0.00 0.00 0.00 0.00 0.00 0.00 0.00 0.00 0.00 0.00 0.00 0.00
0.00 0.00 0.00 0.00 0.00 0.00 0.00 0.00 0.00 0.00 0.00 0.00 0.00 0.00 0.00 0.00 0.00 0.00 0.00 0.00 0.00 0.00 0.00 0.00 0.00 0.00 0.00 0.00 0.00 0.00 0.00 0.00 0.00 0.00 0.00 0.00 0.00 0.00 0.00 0.00 0.00 0.00 0.00 0.00 0.00 0.00 0.00 0.00 0.00
0.00 0.00 0.00 0.00 0.00 0.00 0.00 0.00 0.00 0.00 0.00 0.00 0.00 0.00 0.00 0.00 0.00 0.00 0.00 0.00 0.00 0.00 0.00 0.00 0.00 0.00 0.00 0.00 0.00 0.00 0.00 0.00 0.00 0.00 0.00 0.00 0.00 0.00 0.00 0.00 0.00 0.00 0.00 0.00 0.00 0.00 0.00 0.00 0.00
0.00 0.00 0.00 0.00 0.00 0.00 0.00 0.00 0.00 0.00 0.00 0.00 0.00 0.00 0.00 0.00 0.00 0.00 0.00 0.00 0.00 0.00 0.00 0.00 0.00 0.00 0.00 0.00 0.00 0.00 0.00 0.00 0.00 0.00 0.00 0.00 0.00 0.00 0.00 0.00 0.00 0.00 0.00 0.00 0.00 0.00 0.00 0.00 0.00
0.00 0.00 0.00 0.00 0.00 0.00 0.00 0.00 0.00 0.00 0.00 0.00 0.00 0.00 0.00 0.00 0.00 0.00 0.00 0.00 0.00 0.00 0.00 0.00 0.00 0.00 0.00 0.00 0.00 0.00 0.00 0.00 0.00 0.00 0.00 0.00 0.00 0.00 0.00 0.00 0.00 0.00 0.00 0.00 0.00 0.00 0.00 0.00 0.00
0.00 0.00 0.00 0.00 0.00 0.00 0.00 0.00 0.00 0.00 0.00 0.00 0.00 0.00 0.00 0.00 0.00 0.00 0.00 0.00 0.00 0.00 0.00 0.00 0.00 0.00 0.00 0.00 0.00 0.00 0.00 0.00 0.00 0.00 0.00 0.00 0.00 0.00 0.00 0.00 0.00 0.00 0.00 0.00 0.00 0.00 0.00 0.00 0.00
MSLP
1014.24 1014.01 1013.74 1013.40 1012.69 1011.23 1010.62 1010.98 1011.32 1011.42 1011.65 1011.84 1012.19 1012.42 1012.31 1012.52 1012.50 1013.29 1014.69 1014.58 1014.86 1015.24 1015.59 1016.25 1016.73 1016.89 1016.98 1017.03 1017.16 1017.21 1017.29 1017.34 1017.37 1017.41 1017.42 1017.32 1017.25 1017.14 1017.08 1017.10 1017.07 1016.93 1016.77 1016.71 1016.65 1016.63 1016.61 1016.63 1016.55
1014.19 1014.41 1013.75 1012.56 1011.54 1010.23 1009.82 1010.71 1011.07 1011.35 1011.76 1012.31 1012.60 1012.76 1012.56 1012.13 1013.26 1013.78 1014.33 1014.77 1014.92 1015.23 1015.48 1015.81 1016.75 1016.90 1017.06 1017.22 1017.33 1017.48 1017.44 1017.65 1017.80 1017.81 1017.81 1017.83 1017.80 1017.74 1017.67 1017.54 1017.44 1017.29 1017.18 1017.04 1016.88 1016.83 1016.81 1016.80 1016.79
1014.02 1013.75 1012.76 1011.72 1010.77 1010.03 1009.96 1010.65 1010.88 1011.57 1012.21 1012.32 1012.35 1012.85 1012.52 1012.34 1013.28 1013.37 1013.95 1014.71 1014.88 1015.24 1015.57 1016.01 1016.80 1016.94 1017.18 1017.39 1017.60 1017.69 1017.76 1017.87 1017.95 1018.01 1018.08 1018.01 1018.00 1017.98 1017.92 1017.87 1017.81 1017.70 1017.58 1017.46 1017.37 1017.10 1017.04 1017.01 1016.99
1013.65 1013.08 1012.27 1011.19 1010.19 1010.29 1010.33 1010.59 1010.96 1011.75 1012.47 1012.63 1012.44 1012.25 1012.99 1012.93 1013.16 1013.34 1014.13 1014.45 1014.90 1015.23 1015.68 1016.52 1016.86 1017.08 1017.29 1017.53 1017.76 1017.90 1017.98 1018.10 1018.24 1018.17 1018.27 1018.28 1018.29 1018.29 1018.26 1018.24 1018.16 1017.96 1017.96 1018.00 1017.78 1017.53 1017.35 1017.24 1017.21
1013.31 1012.24 1011.13 1010.66 1010.31 1010.46 1010.53 1010.91 1011.21 1011.43 1011.66 1012.00 1012.52 1011.91 1012.38 1013.18 1013.65 1013.81 1014.16 1014.50 1014.76 1015.14 1015.59 1016.23 1016.91 1017.17 1017.42 1017.73 1017.95 1018.07 1018.17 1018.33 1018.49 1018.51 1018.53 1018.53 1018.53 1018.60 1018.61 1018.57 1018.52 1018.48 1018.39 1018.42 1018.24 1017.99 1017.76 1017.64 1017.48
1012.48 1012.05 1010.75 1010.12 1009.90 1010.38 1010.56 1010.85 1011.13 1011.12 1011.35 1011.99 1012.38 1012.17 1012.08 1012.96 1013.55 1013.84 1014.22 1014.47 1014.61 1015.19 1015.60 1015.88 1016.94 1017.21 1017.51 1017.76 1018.03 1018.14 1018.35 1018.54 1018.74 1018.78 1018.80 1018.80 1018.80 1018.90 1018.86 1018.86 1018.83 1018.77 1018.80 1018.73 1018.70 1018.53 1018.38 1018.18 1017.94
1012.51 1011.78 1010.75 1010.35 1010.19 1010.20 1010.42 1010.82 1010.81 1010.71 1010.95 1011.31 1011.82 1011.54 1011.90 1012.83 1013.38 1013.77 1014.13 1014.39 1014.70 1015.04 1015.53 1015.70 1016.39 1017.10 1017.62 1017.92 1018.11 1018.29 1018.50 1018.70 1018.95 1019.02 1019.04 1019.07 1019.10 1019.21 1019.23 1019.22 1019.17 1019.06 1019.05 1019.12 1019.10 1019.05 1018.90 1018.71 1018.52
1013.19 1012.24 1011.11 1010.68 1010.31 1010.05 1010.45 1010.95 1010.92 1010.70 1010.47 1011.77 1011.91 1011.05 1011.09 1011.82 1013.06 1013.71 1014.09 1014.38 1014.74 1015.04 1015.27 1015.26 1015.76 1016.72 1017.12 1017.73 1018.22 1018.37 1018.56 1018.83 1019.10 1019.24 1019.28 1019.31 1019.39 1019.49 1019.53 1019.44 1019.58 1019.49 1019.39 1019.41 1019.46 1019.45 1019.36 1019.20 1019.05
1013.78 1012.45 1011.09 1010.74 1010.76 1010.41 1010.94 1010.92 1011.18 1011.22 1010.94 1011.55 1011.59 1011.26 1011.93 1012.37 1013.16 1013.59 1013.98 1014.25 1014.54 1014.89 1015.00 1015.05 1015.39 1015.92 1016.46 1016.97 1017.90 1018.43 1018.64 1018.97 1019.24 1019.53 1019.66 1019.52 1019.08 1019.16 1019.30 1019.85 1019.86 1019.90 1019.87 1019.75 1019.73 1019.73 1019.66 1019.51 1019.42
1013.39 1012.54 1011.43 1011.41 1011.32 1011.08 1011.00 1011.09 1010.80 1011.31 1010.85 1010.95 1011.06 1011.40 1012.28 1012.49 1012.90 1013.06 1013.32 1013.59 1014.05 1014.57 1014.79 1014.98 1015.32 1015.63 1016.17 1016.73 1017.44 1017.55 1018.07 1018.36 1018.54 1018.85 1019.12 1018.95 1019.15 1019.24 1019.43 1020.05 1020.23 1020.28 1020.28 1020.19 1019.99 1019.84 1019.66 1019.24 1019.05
1013.68 1012.61 1012.54 1012.11 1012.07 1012.00 1011.68 1011.42 1011.45 1010.89 1010.12 1010.16 1009.92 1010.20 1011.65 1012.14 1012.37 1012.48 1012.67 1012.92 1013.26 1013.89 1014.56 1014.88 1015.04 1015.48 1016.00 1016.60 1016.93 1017.38 1017.86 1018.18 1018.50 1018.70 1018.81 1018.94 1019.28 1019.58 1019.52 1019.90 1019.96 1020.01 1020.32 1019.83 1019.79 1019.48 1019.49 1019.63 1019.45
1013.67 1013.17 1013.08 1012.67 1012.60 1012.31 1011.87 1011.46 1011.01 1010.45 1009.76 1010.02 1010.22 1010.19 1010.66 1011.49 1011.48 1011.59 1011.77 1012.02 1012.46 1013.21 1013.91 1015.00 1014.84 1015.32 1015.75 1016.38 1016.80 1016.94 1017.33 1017.77 1018.05 1018.50 1018.55 1018.81 1019.01 1019.17 1019.39 1019.50 1019.87 1020.01 1019.95 1019.97 1019.90 1019.80 1019.78 1019.71 1019.66
1013.55 1013.08 1013.00 1012.80 1012.72 1012.39 1012.03 1011.30 1010.62 1009.73 1009.84 1009.79 1010.00 1010.59 1010.46 1010.67 1010.75 1010.95 1011.09 1011.46 1011.92 1012.49 1013.28 1014.14 1014.65 1014.87 1015.31 1015.98 1016.41 1016.68 1016.85 1017.35 1017.69 1018.17 1018.49 1018.47 1018.75 1018.92 1019.28 1019.52 1019.70 1019.88 1020.00 1019.92 1019.97 1019.92 1019.85 1019.72 1019.70
1013.70 1013.37 1012.80 1012.43 1012.13 1011.94 1011.53 1010.63 1010.52 1009.40 1009.69 1009.43 1009.43 1009.55 1009.75 1009.86 1009.93 1010.25 1010.55 1010.65 1011.11 1011.68 1012.40 1013.30 1013.82 1014.17 1014.62 1015.30 1015.88 1016.26 1016.66 1016.97 1017.57 1017.98 1018.28 1018.43 1018.50 1018.78 1019.15 1019.43 1019.67 1019.79 1019.95 1020.07 1019.97 1019.97 1020.01 1019.98 1019.80
1013.79 1013.15 1012.14 1011.59 1011.75 1011.58 1011.44 1010.14 1009.46 1009.30 1009.22 1008.87 1008.77 1008.60 1008.76 1008.93 1009.43 1009.28 1009.38 1009.87 1010.20 1010.54 1011.43 1012.17 1012.94 1013.48 1013.92 1014.67 1015.37 1015.98 1016.52 1016.93 1017.28 1017.71 1018.09 1018.34 1018.47 1018.63 1019.01 1019.20 1019.43 1019.62 1019.83 1020.04 1020.12 1020.08 1020.10 1020.11 1020.10
1013.41 1012.75 1011.67 1011.23 1011.68 1011.46 1011.64 1008.84 1008.65 1009.10 1008.98 1008.54 1008.23 1007.97 1007.99 1007.91 1008.45 1008.61 1008.76 1009.15 1009.62 1009.89 1010.50 1011.38 1012.27 1012.97 1013.40 1014.05 1014.77 1015.52 1016.03 1016.52 1016.83 1017.27 1017.75 1018.11 1018.42 1018.58 1018.84 1019.12 1019.36 1019.67 1019.94 1020.08 1020.15 1020.16 1020.18 1020.16 1020.06
1013.15 1011.88 1011.25 1010.98 1011.37 1011.45 1011.26 1009.01 1008.48 1009.29 1008.90 1008.35 1007.71 1007.11 1006.89 1006.99 1007.16 1007.16 1007.72 1008.13 1008.63 1009.07 1009.61 1010.39 1011.49 1012.40 1012.78 1013.45 1014.24 1014.89 1015.46 1016.02 1016.34 1016.81 1017.30 1017.81 1018.23 1018.49 1018.68 1018.97 1019.32 1019.75 1019.90 1019.98 1020.12 1020.24 1020.16 1020.07 1020.11
1012.35 1012.06 1011.53 1011.26 1010.89 1011.43 1010.83 1009.42 1008.45 1008.13 1008.01 1007.54 1007.04 1006.43 1005.86 1005.52 1005.42 1005.64 1006.25 1007.17 1007.79 1008.30 1008.84 1009.37 1010.29 1011.50 1012.06 1012.87 1013.68 1014.30 1014.98 1015.50 1015.80 1016.26 1016.78 1017.35 1017.95 1018.35 1018.50 1018.85 1019.22 1019.54 1019.79 1019.94 1020.12 1020.16 1020.31 1020.26 1020.17
1013.58 1013.02 1012.15 1011.40 1011.05 1010.97 1009.96 1008.75 1007.90 1007.16 1006.63 1006.36 1006.03 1005.82 1005.12 1004.57 1004.53 1005.04 1005.39 1006.34 1007.15 1007.57 1007.73 1008.21 1008.97 1010.00 1011.00 1011.89 1012.64 1013.40 1013.90 1014.72 1015.30 1015.90 1016.39 1016.91 1017.43 1018.02 1018.27 1018.61 1019.00 1019.39 1019.47 1019.69 1019.99 1020.18 1020.19 1020.10 1020.18
1014.04 1013.17 1012.10 1011.29 1011.00 1010.84 1009.18 1007.29 1006.93 1005.96 1005.30 1005.15 1005.39 1005.33 1004.98 1004.81 1004.85 1004.83 1005.08 1005.87 1006.52 1006.81 1007.25 1007.86 1008.25 1009.18 1009.80 1010.59 1011.07 1011.99 1012.82 1013.59 1014.42 1015.29 1015.86 1016.37 1016.85 1017.41 1017.78 1018.19 1018.59 1018.95 1019.18 1019.59 1019.92 1020.12 1020.03 1020.04 1020.22
1013.85 1013.21 1012.33 1011.74 1011.07 1010.46 1008.76 1005.74 1004.41 1004.27 1004.80 1004.80 1005.21 1005.36 1005.42 1005.42 1005.33 1005.37 1005.60 1005.93 1006.65 1007.06 1006.99 1006.95 1006.92 1007.79 1008.53 1009.48 1010.45 1011.34 1012.23 1013.21 1013.91 1014.48 1015.12 1015.63 1016.23 1016.83 1017.18 1017.64 1017.98 1018.41 1018.73 1019.09 1019.57 1019.83 1019.92 1019.68 1020.16
1013.56 1013.23 1013.22 1012.62 1011.94 1010.19 1010.01 1005.28 1004.49 1003.10 1003.85 1004.54 1004.94 1004.95 1005.71 1006.50 1007.01 1007.35 1007.27 1007.06 1006.80 1006.81 1007.07 1007.00 1007.07 1007.28 1007.95 1009.08 1009.46 1009.86 1010.29 1011.22 1011.95 1012.90 1013.91 1014.69 1015.42 1016.04 1016.61 1017.00 1017.43 1017.82 1018.28 1018.59 1019.13 1019.48 1019.60 1019.77 1019.65
1013.94 1014.11 1013.57 1012.93 1011.89 1010.69 1009.41 1008.51 1003.69 1003.18 1003.76 1005.04 1005.93 1007.40 1008.11 1008.60 1008.60 1008.33 1008.33 1008.23 1007.73 1007.45 1006.91 1006.68 1006.59 1006.73 1007.19 1007.92 1008.29 1008.50 1009.11 1009.79 1010.78 1011.87 1012.92 1013.85 1014.82 1015.35 1015.95 1016.37 1016.97 1017.37 1017.76 1018.09 1018.55 1019.00 1019.25 1019.45 1019.41
1014.81 1014.12 1013.12 1012.81 1012.10 1010.19 1008.06 1007.69 1003.58 1004.37 1005.49 1006.18 1007.82 1008.57 1009.05 1009.31 1009.34 1009.57 1009.24 1008.92 1008.25 1007.75 1007.31 1006.73 1006.34 1006.02 1006.25 1006.99 1007.50 1007.49 1007.57 1008.35 1009.35 1010.50 1011.72 1012.82 1013.69 1014.51 1015.23 1015.86 1016.31 1016.84 1017.21 1017.58 1018.15 1018.52 1018.79 1019.06 1019.23
1014.90 1014.11 1012.78 1011.80 1011.45 1009.07 1008.86 1007.86 1004.97 1005.30 1006.95 1008.69 1009.51 1009.82 1009.71 1009.95 1010.24 1010.14 1009.91 1009.53 1008.40 1007.76 1007.03 1006.69 1006.03 1005.68 1005.75 1005.95 1006.61 1007.09 1007.13 1007.49 1008.06 1009.34 1010.23 1011.35 1012.36 1013.44 1014.20 1015.00 1015.65 1016.21 1016.75 1017.16 1017.65 1018.02 1018.28 1018.61 1018.94
1015.85 1015.56 1014.81 1013.22 1011.38 1009.98 1010.06 1006.98 1005.66 1006.19 1007.28 1009.34 1010.57 1011.04 1011.41 1011.39 1010.90 1010.36 1010.05 1009.88 1009.09 1008.05 1007.21 1006.65 1005.59 1005.07 1005.43 1005.48 1005.82 1006.49 1006.99 1007.19 1007.42 1008.37 1009.13 1010.07 1010.93 1011.95 1013.07 1014.03 1014.78 1015.40 1016.14 1016.72 1017.24 1017.51 1017.82 1018.05 1018.51
1016.39 1016.53 1017.21 1015.82 1014.02 1012.19 1009.48 1007.87 1006.77 1007.14 1008.21 1010.20 1010.76 1011.05 1011.65 1011.59 1011.31 1010.60 1009.77 1009.43 1008.78 1007.98 1007.29 1006.67 1005.75 1004.95 1004.81 1004.94 1005.32 1005.78 1005.95 1006.34 1006.63 1007.38 1008.24 1008.99 1010.07 1011.14 1012.31 1013.29 1014.07 1014.76 1015.46 1016.09 1016.69 1016.95 1017.27 1017.53 1017.96
1018.17 1018.79 1018.12 1017.51 1015.30 1012.66 1009.89 1009.84 1008.95 1009.98 1011.12 1011.56 1011.42 1011.47 1011.11 1011.30 1011.20 1010.42 1009.89 1009.50 1008.93 1008.08 1007.30 1006.56 1005.99 1005.15 1004.58 1004.58 1004.73 1005.22 1005.46 1005.81 1006.46 1006.91 1007.30 1008.12 1009.17 1010.31 1011.50 1012.54 1013.41 1014.17 1014.83 1015.62 1016.09 1016.56 1016.86 1017.00 1017.40
1019.64 1019.56 1019.94 1019.88 1018.64 1016.42 1014.32 1011.58 1011.82 1012.42 1012.41 1012.27 1012.72 1012.80 1012.70 1012.09 1011.41 1010.55 1010.02 1009.33 1008.85 1008.35 1007.15 1006.42 1005.67 1005.21 1004.58 1004.35 1004.28 1004.61 1004.81 1005.25 1005.92 1006.38 1006.98 1007.60 1008.47 1009.55 1010.71 1011.69 1012.59 1013.46 1014.19 1014.84 1015.34 1015.84 1016.22 1016.66 1016.89
1020.78 1021.51 1021.57 1021.37 1020.35 1019.38 1018.30 1013.25 1015.49 1014.21 1013.95 1013.47 1013.37 1013.68 1013.45 1012.57 1011.65 1010.89 1010.15 1009.33 1008.76 1007.89 1006.97 1006.41 1005.70 1005.22 1004.93 1004.21 1003.98 1004.17 1004.37 1004.67 1005.01 1005.72 1006.39 1007.18 1007.92 1009.02 1010.02 1011.01 1011.94 1012.80 1013.56 1014.08 1014.59 1015.08 1015.46 1016.01 1016.36
Thickness
5797 5801 5804 5799 5779 5785 5772 5776 5790 5784 5786 5802 5803 5795 5792 5796 5789 5777 5799 5804 5801 5797 5792 5786 5782 5780 5778 5776 5773 5771 5768 5766 5764 5762 5760 5760 5760 5759 5758 5756 5755 5755 5756 5755 5754 5753 5752 5750 5750
5797 5797 5798 5794 5775 5768 5778 5788 5779 5790 5796 5799 5796 5793 5792 5792 5799 5797 5796 5802 5800 5796 5793 5789 5781 5779 5777 5775 5772 5770 5768 5765 5762 5759 5758 5756 5755 5754 5753 5752 5752 5752 5752 5752 5753 5752 5751 5750 5748
5798 5800 5788 5783 5779 5768 5773 5786 5790 5793 5795 5794 5792 5796 5796 5795 5799 5803 5807 5802 5800 5796 5792 5788 5781 5779 5776 5773 5770 5768 5766 5763 5761 5758 5756 5755 5753 5752 5751 5749 5748 5748 5749 5749 5749 5751 5750 5749 5748
5795 5795 5794 5775 5772 5783 5784 5790 5795 5786 5787 5792 5795 5787 5796 5808 5803 5809 5807 5803 5799 5795 5791 5784 5779 5777 5774 5771 5768 5766 5764 5761 5758 5757 5755 5753 5751 5749 5748 5746 5745 5746 5746 5745 5746 5747 5747 5747 5747
5797 5793 5776 5771 5774 5783 5791 5792 5792 5785 5790 5791 5790 5791 5791 5802 5806 5807 5804 5802 5797 5795 5790 5784 5778 5775 5772 5769 5766 5764 5762 5758 5756 5754 5753 5750 5748 5746 5745 5744 5742 5742 5742 5741 5742 5743 5744 5743 5744
5783 5788 5770 5766 5777 5784 5790 5794 5791 5791 5793 5789 5784 5786 5795 5805 5801 5803 5802 5799 5796 5791 5787 5784 5776 5772 5769 5767 5764 5762 5759 5756 5753 5751 5750 5748 5746 5744 5742 5741 5739 5739 5738 5738 5737 5738 5738 5739 5739
5776 5774 5770 5774 5772 5777 5785 5797 5790 5793 5793 5790 5797 5786 5798 5797 5802 5802 5800 5798 5793 5789 5785 5783 5777 5771 5766 5763 5761 5758 5756 5753 5750 5748 5747 5745 5742 5741 5738 5736 5735 5735 5734 5733 5733 5733 5733 5734 5734
5777 5775 5768 5773 5768 5772 5790 5788 5796 5795 5794 5797 5798 5788 5792 5803 5802 5799 5797 5794 5791 5788 5783 5783 5779 5771 5766 5761 5757 5755 5754 5750 5747 5744 5743 5742 5739 5737 5735 5734 5731 5730 5730 5729 5728 5727 5727 5728 5729
5774 5762 5762 5768 5766 5776 5787 5782 5792 5797 5795 5790 5794 5798 5798 5801 5797 5792 5789 5788 5787 5784 5783 5781 5778 5773 5768 5764 5756 5752 5750 5747 5743 5740 5739 5738 5739 5736 5734 5729 5728 5725 5724 5724 5724 5723 5722 5723 5723
5765 5757 5767 5779 5779 5777 5785 5783 5792 5782 5788 5785 5789 5797 5793 5795 5790 5787 5784 5782 5782 5778 5779 5779 5775 5772 5767 5762 5756 5754 5750 5747 5744 5741 5738 5738 5736 5734 5731 5725 5723 5721 5719 5719 5719 5720 5719 5720 5720
5760 5757 5765 5771 5774 5776 5775 5776 5784 5782 5784 5788 5792 5799 5793 5789 5787 5787 5786 5786 5784 5782 5778 5775 5774 5769 5764 5758 5755 5752 5747 5745 5741 5738 5736 5735 5732 5729 5727 5722 5720 5719 5716 5717 5716 5717 5716 5714 5714
5749 5761 5760 5764 5768 5768 5768 5779 5776 5784 5791 5798 5796 5801 5797 5786 5788 5788 5787 5787 5787 5783 5778 5769 5770 5765 5761 5756 5751 5750 5747 5743 5741 5736 5734 5732 5730 5728 5725 5722 5718 5715 5713 5712 5711 5710 5710 5709 5708
5752 5759 5760 5764 5763 5764 5770 5769 5774 5789 5792 5794 5794 5788 5789 5788 5791 5792 5792 5791 5788 5781 5775 5769 5765 5763 5758 5753 5749 5747 5745 5741 5738 5733 5730 5730 5727 5725 5721 5718 5715 5712 5709 5707 5705 5705 5703 5703 5702
5755 5753 5757 5763 5762 5764 5761 5773 5776 5786 5785 5788 5791 5789 5789 5789 5790 5790 5790 5788 5786 5781 5776 5770 5767 5763 5758 5753 5748 5744 5740 5737 5733 5729 5727 5724 5723 5720 5717 5713 5710 5708 5705 5702 5700 5699 5697 5696 5695
5749 5742 5757 5764 5761 5757 5763 5767 5770 5782 5785 5785 5786 5791 5792 5793 5790 5792 5793 5788 5788 5787 5780 5774 5767 5762 5758 5751 5744 5739 5734 5730 5728 5724 5721 5719 5717 5715 5711 5709 5706 5703 5700 5697 5694 5692 5691 5689 5688
5737 5743 5739 5761 5754 5758 5750 5764 5781 5781 5776 5776 5783 5788 5790 5794 5791 5792 5793 5790 5786 5783 5778 5771 5765 5759 5755 5748 5741 5734 5729 5725 5723 5720 5716 5713 5710 5708 5705 5702 5699 5696 5693 5690 5688 5686 5684 5682 5681
5730 5734 5741 5748 5754 5745 5740 5756 5782 5772 5769 5771 5781 5789 5791 5792 5793 5798 5795 5792 5786 5783 5778 5770 5762 5754 5750 5744 5736 5730 5725 5721 5718 5715 5711 5707 5703 5701 5698 5695 5692 5688 5686 5684 5681 5678 5677 5675 5673
5728 5727 5736 5733 5751 5735 5733 5743 5769 5778 5771 5772 5779 5786 5790 5794 5798 5800 5796 5790 5784 5778 5774 5770 5763 5752 5747 5740 5732 5727 5721 5717 5714 5709 5705 5700 5696 5693 5691 5687 5684 5681 5679 5676 5673 5671 5668 5666 5665
5716 5712 5714 5732 5744 5727 5734 5742 5759 5775 5776 5773 5777 5778 5785 5790 5796 5794 5791 5784 5775 5772 5771 5767 5761 5754 5744 5737 5729 5723 5718 5711 5707 5701 5697 5694 5690 5686 5683 5680 5678 5674 5673 5670 5666 5662 5660 5659 5657
5705 5705 5713 5730 5736 5726 5735 5747 5757 5770 5779 5779 5772 5773 5774 5774 5774 5777 5777 5771 5766 5764 5761 5756 5755 5748 5744 5737 5733 5724 5717 5710 5704 5697 5693 5689 5685 5680 5677 5676 5672 5668 5666 5662 5658 5654 5653 5652 5649
5704 5700 5709 5709 5722 5728 5729 5750 5773 5779 5772 5773 5768 5765 5763 5758 5757 5757 5757 5758 5753 5749 5750 5751 5752 5746 5741 5735 5727 5720 5712 5704 5697 5695 5689 5684 5677 5674 5674 5671 5667 5664 5661 5657 5652 5648 5645 5646 5641
5695 5708 5698 5695 5691 5698 5710 5719 5757 5772 5761 5758 5756 5758 5751 5741 5736 5731 5730 5733 5737 5738 5738 5739 5737 5736 5732 5724 5721 5716 5713 5704 5702 5694 5687 5682 5676 5673 5669 5665 5662 5659 5655 5652 5646 5642 5640 5636 5637
5694 5692 5689 5687 5687 5689 5698 5684 5751 5764 5742 5734 5731 5715 5708 5707 5708 5710 5711 5712 5717 5720 5725 5726 5726 5726 5725 5719 5717 5715 5710 5707 5699 5691 5684 5677 5671 5667 5663 5660 5656 5653 5650 5647 5642 5637 5634 5631 5630
5686 5682 5686 5679 5674 5670 5700 5690 5736 5727 5716 5715 5698 5693 5691 5689 5688 5685 5689 5693 5697 5702 5705 5710 5713 5716 5716 5712 5711 5711 5710 5705 5696 5688 5678 5672 5667 5662 5658 5654 5650 5647 5644 5641 5635 5632 5628 5625 5622
5676 5671 5665 5672 5663 5678 5680 5675 5714 5718 5696 5675 5663 5663 5666 5664 5659 5659 5661 5666 5678 5683 5690 5693 5699 5703 5703 5703 5700 5700 5701 5698 5694 5683 5678 5671 5666 5659 5655 5648 5645 5642 5638 5634 5630 5627 5624 5620 5615
5650 5646 5640 5630 5654 5661 5667 5662 5693 5701 5688 5656 5645 5639 5630 5627 5629 5631 5637 5641 5650 5661 5669 5674 5684 5691 5689 5691 5692 5689 5687 5685 5686 5680 5676 5670 5666 5661 5653 5648 5642 5638 5633 5628 5624 5622 5618 5615 5609
5634 5622 5615 5606 5623 5618 5649 5659 5679 5671 5646 5620 5613 5613 5601 5599 5599 5607 5614 5615 5624 5633 5645 5651 5661 5673 5677 5678 5678 5677 5680 5679 5679 5676 5671 5668 5662 5656 5649 5642 5637 5632 5628 5622 5618 5616 5613 5610 5604
5610 5601 5588 5589 5579 5594 5631 5615 5617 5606 5585 5581 5578 5578 5580 5574 5575 5581 5586 5593 5600 5609 5620 5631 5638 5649 5659 5665 5666 5664 5667 5668 5666 5665 5665 5663 5657 5651 5644 5637 5631 5626 5622 5616 5613 5608 5605 5604 5599
5581 5576 5566 5556 5552 5541 5543 5586 5600 5559 5553 5546 5537 5528 5530 5533 5537 5550 5559 5569 5579 5588 5599 5611 5620 5627 5639 5648 5652 5653 5656 5657 5655 5656 5654 5653 5650 5645 5638 5632 5627 5621 5617 5612 5608 5604 5600 5594 5592
5563 5540 5533 5515 5514 5514 5494 5530 5536 5527 5512 5509 5502 5488 5494 5503 5509 5515 5523 5538 5546 5561 5575 5588 5600 5608 5617 5631 5638 5642 5645 5647 5649 5647 5646 5643 5640 5635 5630 5626 5620 5615 5610 5608 5604 5599 5595 5589 5584